GW4545 Weather Reports


time (UTC)temp
C
wind
direction
speed
KPH
gust
KPH
rain 1hr
cm
rain 24hr
cm
rain mn
cm
humidity
%
barometer
mb
20260508151545 10 80 1.6 4.8 0.00 0.00 0.00 84 1021.6
20260508150048 9 0 0.0 3.2 0.00 0.00 0.00 86 1021.4
20260508144550 8 194 0.0 1.6 0.00 0.00 0.00 87 1021.3
20260508143051 8 200 0.0 4.8 0.00 0.00 0.00 87 1021.3
20260508141543 8 0 0.0 0.0 0.00 0.00 0.00 87 1021.2
20260508140047 8 0 0.0 1.6 0.00 0.00 0.00 89 1021.2
20260508134547 7 176 1.6 4.8 0.00 0.00 0.00 87 1021.0
20260508133055 7 176 1.6 4.8 0.00 0.00 0.00 85 1020.6
20260508131550 8 135 1.6 6.4 0.00 0.00 0.00 83 1020.3
20260508124551 8 352 1.6 8.0 0.00 0.00 0.00 80 1020.0
20260508123056 8 348 3.2 12.9 0.00 0.00 0.00 78 1019.7
20260508121548 8 280 6.4 14.5 0.00 0.00 0.00 78 1019.5
20260508120049 8 11 3.2 12.9 0.00 0.00 0.00 81 1019.6
20260508114551 7 331 3.2 16.1 0.00 0.00 0.00 88 1019.5
20260508113044 7 261 0.0 1.6 0.00 0.00 0.00 92 1019.4
20260508111548 7 0 1.6 4.8 0.00 0.00 0.00 92 1019.4
20260508110050 7 0 0.0 3.2 0.00 0.00 0.00 92 1018.9
20260508104552 7 261 1.6 3.2 0.00 0.00 0.00 92 1018.8
20260508103050 7 0 0.0 1.6 0.00 0.00 0.00 92 1018.6
20260508101547 7 0 0.0 1.6 0.00 0.00 0.00 91 1018.5
20260508100043 7 0 1.6 3.2 0.00 0.00 0.00 90 1018.4
20260508094547 8 261 1.6 4.8 0.00 0.00 0.00 91 1018.3
20260508093054 7 261 1.6 3.2 0.00 0.00 0.00 92 1018.2
20260508091557 7 261 1.6 4.8 0.00 0.00 0.00 92 1018.1
20260508090059 7 0 0.0 3.2 0.00 0.00 0.00 90 1018.0
20260508084547 8 0 0.0 3.2 0.00 0.00 0.00 89 1017.9
20260508083044 8 0 0.0 3.2 0.00 0.00 0.00 89 1017.9
20260508081555 8 244 3.2 4.8 0.00 0.00 0.00 88 1017.8
20260508080052 8 244 1.6 4.8 0.00 0.00 0.00 87 1017.8
20260508074549 9 0 0.0 3.2 0.00 0.00 0.00 86 1017.8
20260508073054 10 247 1.6 3.2 0.00 0.00 0.00 83 1017.8
20260508071555 10 263 1.6 4.8 0.00 0.00 0.00 82 1017.8
20260508070056 10 236 1.6 4.8 0.00 0.00 0.00 84 1017.7
20260508064544 10 236 1.6 4.8 0.00 0.00 0.00 85 1017.7
20260508063043 10 236 3.2 4.8 0.00 0.00 0.00 83 1017.7
20260508061548 10 242 1.6 6.4 0.00 0.00 0.00 82 1017.7
20260508060048 11 222 1.6 4.8 0.00 0.00 0.00 82 1017.9
20260508054550 11 273 1.6 3.2 0.00 0.00 0.00 79 1017.9
20260508053051 12 0 0.0 3.2 0.00 0.00 0.00 78 1018.1
20260508051545 12 294 0.0 6.4 0.00 0.00 0.00 76 1018.0
20260508050043 13 271 4.8 11.3 0.00 0.00 0.00 75 1017.8
20260508044548 13 102 3.2 6.4 0.00 0.00 0.00 76 1017.8
20260508043048 13 146 1.6 8.0 0.00 0.00 0.00 76 1017.8
20260508041547 13 225 3.2 8.0 0.00 0.00 0.00 78 1017.9
20260508040045 14 269 1.6 4.8 0.00 0.00 0.00 76 1017.6
20260508034543 15 300 0.0 6.4 0.00 0.00 0.00 71 1017.5
20260508033106 15 262 1.6 4.8 0.00 0.00 0.00 72 1017.4
20260508031547 16 265 1.6 6.4 0.00 0.00 0.00 73 1017.3
20260508030100 16 251 3.2 6.4 0.00 0.00 0.00 72 1017.3
20260508024550 18 246 1.6 4.8 0.00 0.00 0.00 69 1017.0
20260508023042 19 269 1.6 4.8 0.00 0.00 0.00 66 1017.1
20260508021547 20 161 0.0 3.2 0.00 0.00 0.00 59 1017.0
20260508020104 20 161 1.6 4.8 0.00 0.00 0.00 57 1017.0
20260508014554 21 90 3.2 6.4 0.00 0.00 0.00 55 1017.1
20260508013056 21 103 0.0 4.8 0.00 0.00 0.00 56 1017.3
20260508011545 21 63 0.0 3.2 0.00 0.00 0.00 53 1017.4
20260508010041 21 0 1.6 6.4 0.00 0.00 0.00 56 1017.6
20260508004542 20 63 1.6 6.4 0.00 0.00 0.00 57 1017.6
20260508003045 20 87 1.6 9.7 0.00 0.00 0.00 60 1017.7
20260508001552 20 0 3.2 9.7 0.00 0.00 0.00 56 1017.8
20260508000048 20 24 3.2 14.5 0.00 0.00 0.00 56 1017.9
20260507234542 20 89 1.6 12.9 0.00 0.00 0.00 55 1017.9
20260507233049 20 19 4.8 12.9 0.00 0.00 0.00 55 1018.3
20260507231547 20 81 3.2 11.3 0.00 0.00 0.00 54 1018.4
20260507230052 20 97 4.8 11.3 0.00 0.00 0.00 59 1018.7
20260507224543 19 360 3.2 9.7 0.00 0.00 0.00 56 1018.9
20260507223048 18 53 4.8 9.7 0.00 0.00 0.00 58 1019.0
20260507221542 18 42 4.8 12.9 0.00 0.00 0.00 61 1019.2
20260507220048 18 40 3.2 11.3 0.00 0.00 0.00 58 1019.5
20260507214549 18 37 3.2 11.3 0.00 0.00 0.00 58 1019.7
20260507213053 17 40 3.2 9.7 0.00 0.00 0.00 61 1019.8
20260507211552 17 84 3.2 9.7 0.00 0.00 0.00 63 1019.9
20260507210043 17 51 4.8 14.5 0.00 0.00 0.00 60 1020.0
20260507204548 17 91 3.2 11.3 0.00 0.00 0.00 59 1020.2
20260507203048 16 119 4.8 11.3 0.00 0.00 0.00 63 1020.4
20260507201548 16 105 3.2 11.3 0.00 0.00 0.00 61 1020.6
20260507200047 16 74 4.8 11.3 0.00 0.00 0.00 62 1020.8
20260507194544 16 120 8.0 14.5 0.00 0.00 0.00 63 1020.9
20260507193044 16 46 3.2 12.9 0.00 0.00 0.00 64 1020.9
20260507191543 15 113 4.8 12.9 0.00 0.00 0.00 62 1021.1
20260507190042 15 175 3.2 9.7 0.00 0.00 0.00 62 1021.2
20260507184547 15 96 4.8 12.9 0.00 0.00 0.00 61 1021.4
20260507183053 15 352 3.2 9.7 0.00 0.00 0.00 62 1021.5
20260507181549 15 0 1.6 6.4 0.00 0.00 0.00 61 1021.6
20260507180053 13 188 0.0 8.0 0.00 0.00 0.00 61 1021.9
20260507174548 13 55 1.6 8.0 0.00 0.00 0.00 62 1021.9
20260507173058 13 46 0.0 12.9 0.00 0.00 0.00 65 1022.1
20260507171552 13 11 4.8 11.3 0.00 0.00 0.00 69 1022.1
20260507170051 12 90 1.6 12.9 0.00 0.00 0.00 67 1022.0
20260507164542 12 33 3.2 9.7 0.00 0.00 0.00 68 1022.1
20260507163047 11 25 4.8 11.3 0.00 0.00 0.00 72 1022.1
20260507161553 11 26 4.8 14.5 0.00 0.00 0.00 74 1022.1
20260507160051 10 24 3.2 9.7 0.00 0.00 0.00 74 1022.0
20260507154547 10 339 6.4 16.1 0.00 0.00 0.00 73 1022.2
20260507153047 10 5 1.6 12.9 0.00 0.00 0.00 76 1022.3